This is the latest recevied weather packets stored in our database for station/object K5NWZ. If no packets are shown the sender has not sent any weather packets the latest 10 day(s).
| Time | Temp. | Humidity | Pressure | Rain* | Wind** | Luminosity | Snow |
|---|---|---|---|---|---|---|---|
| 1787901663 | 18.89° C | 61% | 1029.9 hPa | 0 mm | - | 0 W/m² | - |
| 1787901358 | 18.89° C | 60% | 1029.8 hPa | 0 mm | - | 0 W/m² | - |
| 1787901054 | 18.89° C | 61% | 1029.7 hPa | 0 mm | - | 0 W/m² | - |
| 1787900754 | 18.89° C | 58% | 1029.7 hPa | 0 mm | - | 0 W/m² | - |
| 1787900449 | 18.89° C | 57% | 1029.7 hPa | 0 mm | - | 0 W/m² | - |
| 1787900148 | 19.44° C | 57% | 1029.7 hPa | 0 mm | - | 0 W/m² | - |
| 1787899844 | 19.44° C | 55% | 1029.8 hPa | 0 mm | - | 0 W/m² | - |
| 1787899539 | 19.44° C | 54% | 1029.7 hPa | 0 mm | - | 0 W/m² | - |
| 1787899239 | 20° C | 54% | 1029.7 hPa | 0 mm | - | 0 W/m² | - |
| 1787898934 | 20° C | 55% | 1029.8 hPa | 0 mm | - | 0 W/m² | - |
| 1787898631 | 20° C | 55% | 1029.5 hPa | 0 mm | - | 0 W/m² | - |
| 1787898328 | 20° C | 58% | 1029.6 hPa | 0 mm | - | 0 W/m² | - |
| 1787898023 | 20.56° C | 57% | 1029.7 hPa | 0 mm | - | 0 W/m² | - |
| 1787897724 | 20.56° C | 58% | 1029.7 hPa | 0 mm | - | 0 W/m² | - |
| 1787897423 | 20.56° C | 58% | 1029.6 hPa | 0 mm | - | 0 W/m² | - |
| 1787897121 | 20.56° C | 59% | 1029.9 hPa | 0 mm | - | 0 W/m² | - |
| 1787896816 | 20.56° C | 58% | 1029.7 hPa | 0 mm | - | 0 W/m² | - |
| 1787896512 | 21.11° C | 57% | 1029.9 hPa | 0 mm | - | 0 W/m² | - |
| 1787896208 | 21.11° C | 57% | 1029.8 hPa | 0 mm | - | 0 W/m² | - |
| 1787895903 | 21.11° C | 55% | 1029.8 hPa | 0 mm | - | 0 W/m² | - |
| 1787895603 | 20.56° C | 54% | 1029.8 hPa | 0 mm | - | 0 W/m² | - |
| 1787895298 | 20.56° C | 54% | 1029.9 hPa | 0 mm | - | 0 W/m² | - |
| 1787894993 | 20.56° C | 56% | 1029.8 hPa | 0 mm | - | 0 W/m² | - |
| 1787894689 | 20.56° C | 56% | 1029.7 hPa | 0 mm | - | 0 W/m² | - |
| 1787894383 | 20.56° C | 56% | 1029.7 hPa | 0 mm | - | 0 W/m² | - |
* Rain latest hour (hover to see other rain measurements)
** Current wind speed in m/s (hover to see current wind gust speed)